This is the latest recevied weather packets stored in our database for station/object WB6ANP. If no packets are shown the sender has not sent any weather packets the latest 10 day(s).
| Time | Temp. | Humidity | Pressure | Rain* | Wind** | Luminosity | Snow |
|---|---|---|---|---|---|---|---|
| 1777834163 | 26.11° C | 35% | 1019.4 hPa | 0 mm | - | 985 W/m² | - |
| 1777833860 | 26.67° C | 33% | 1019.5 hPa | 0 mm | - | 995 W/m² | - |
| 1777833556 | 26.11° C | 33% | 1019.3 hPa | 0 mm | - | 993 W/m² | - |
| 1777833253 | 26.11° C | 35% | 1019.4 hPa | 0 mm | - | 959 W/m² | - |
| 1777832950 | 26.11° C | 34% | 1019.6 hPa | 0 mm | - | 975 W/m² | - |
| 1777832649 | 25.56° C | 36% | 1019.7 hPa | 0 mm | - | 990 W/m² | - |
| 1777832346 | 25.56° C | 40% | 1019.8 hPa | 0 mm | - | 973 W/m² | - |
| 1777832043 | 25.56° C | 36% | 1019.8 hPa | 0 mm | - | 953 W/m² | - |
| 1777831739 | 25.56° C | 36% | 1019.9 hPa | 0 mm | - | 952 W/m² | - |
| 1777831437 | 25° C | 38% | 1020.1 hPa | 0 mm | - | 950 W/m² | - |
| 1777831133 | 25° C | 40% | 1020.2 hPa | 0 mm | - | 950 W/m² | - |
| 1777830831 | 25.56° C | 36% | 1020.2 hPa | 0 mm | - | 945 W/m² | - |
| 1777830527 | 25° C | 40% | 1020.2 hPa | 0 mm | - | 944 W/m² | - |
| 1777830225 | 25° C | 40% | 1020.2 hPa | 0 mm | - | 942 W/m² | - |
| 1777829925 | 25.56° C | 44% | 1020.5 hPa | 0 mm | - | 935 W/m² | - |
| 1777829622 | 25° C | 41% | 1020.4 hPa | 0 mm | - | 934 W/m² | - |
| 1777829318 | 25° C | 42% | 1020.7 hPa | 0 mm | - | 928 W/m² | - |
| 1777829016 | 24.44° C | 43% | 1020.7 hPa | 0 mm | - | 922 W/m² | - |
| 1777828712 | 24.44° C | 45% | 1020.9 hPa | 0 mm | - | 919 W/m² | - |
| 1777828409 | 23.89° C | 45% | 1021 hPa | 0 mm | - | 913 W/m² | - |
| 1777828106 | 23.89° C | 45% | 1020.9 hPa | 0 mm | - | 908 W/m² | - |
| 1777827803 | 23.89° C | 44% | 1021.2 hPa | 0 mm | - | 900 W/m² | - |
| 1777827500 | 23.89° C | 43% | 1021.1 hPa | 0 mm | - | 892 W/m² | - |
| 1777827198 | 23.89° C | 46% | 1021.2 hPa | 0 mm | - | 884 W/m² | - |
| 1777826893 | 23.89° C | 44% | 1021.3 hPa | 0 mm | - | 876 W/m² | - |
* Rain latest hour (hover to see other rain measurements)
** Current wind speed in m/s (hover to see current wind gust speed)